Back to catalog

FENGYUN 1C DEB

AliveSSO
NORAD 37054·DEBRIS·🇨🇳 China

Launched May 10, 1999 from Taiyuan Satellite Launch Center

Loading…

Next Passes (next 24 hours)

TLE

AgingSource: Space-Track

Epoch: Sep 9, 2026, 16:19 UTC

1 37054U 99025EEN 26252.68030746  .00000351  00000-0  17625-3 0  9998
2 37054  98.5782 231.3724 0100859  42.4855 318.4073 14.19773546682732

Track FENGYUN 1C DEB in real time with AllMySat

Download on the App Store